This is the latest recevied weather packets stored in our database for station/object DB0MOD. If no packets are shown the sender has not sent any weather packets the latest 1 day(s).
| Time | Temp. | Humidity | Pressure | Rain* | Wind** | Luminosity | Snow |
|---|---|---|---|---|---|---|---|
| 1778052241 | 10° C | 10% | 1006.5 hPa | 0 mm | - | - | - |
| 1778050441 | 9.44° C | 10% | 1006.8 hPa | 0 mm | - | - | - |
| 1778049241 | 8.89° C | 10% | 1007 hPa | 0 mm | - | - | - |
| 1778048042 | 7.78° C | 10% | 1006.7 hPa | 0 mm | - | - | - |
| 1778040541 | 6.11° C | 10% | 1007.1 hPa | 0 mm | - | - | - |
| 1778039942 | 6.11° C | 10% | 1007.2 hPa | 0 mm | - | - | - |
| 1778039342 | 6.11° C | 10% | 1007.2 hPa | 0 mm | - | - | - |
| 1778039041 | 6.11° C | 10% | 1007.2 hPa | 0 mm | - | - | - |
| 1778038442 | 5.56° C | 10% | 1007.2 hPa | 0 mm | - | - | - |
| 1778038142 | 5.56° C | 10% | 1007.2 hPa | 0 mm | - | - | - |
| 1778037842 | 5° C | 10% | 1007.5 hPa | 0 mm | - | - | - |
| 1778037542 | 5° C | 10% | 1007.6 hPa | 0 mm | - | - | - |
| 1778037242 | 5.56° C | 10% | 1007.7 hPa | 0 mm | - | - | - |
| 1778036942 | 5.56° C | 10% | 1007.7 hPa | 0 mm | - | - | - |
| 1778036642 | 5.56° C | 10% | 1007.8 hPa | 0 mm | - | - | - |
| 1778036342 | 5.56° C | 10% | 1007.7 hPa | 0 mm | - | - | - |
| 1778036042 | 5.56° C | 10% | 1007.6 hPa | 0 mm | - | - | - |
| 1778035742 | 5.56° C | 10% | 1007.8 hPa | 0 mm | - | - | - |
| 1778035442 | 5.56° C | 10% | 1008.1 hPa | 0 mm | - | - | - |
| 1778035142 | 5.56° C | 10% | 1008 hPa | 0 mm | - | - | - |
| 1778034842 | 5.56° C | 10% | 1008.1 hPa | 0 mm | - | - | - |
| 1778034542 | 5.56° C | 10% | 1008.1 hPa | 0 mm | - | - | - |
| 1778034242 | 5.56° C | 10% | 1008.2 hPa | 0 mm | - | - | - |
| 1778033942 | 5.56° C | 10% | 1008.2 hPa | 0 mm | - | - | - |
| 1778033642 | 5.56° C | 10% | 1008.2 hPa | 0 mm | - | - | - |
* Rain latest hour (hover to see other rain measurements)
** Current wind speed in m/s (hover to see current wind gust speed)